Content
SEND FEEDBACK

Daily
Averages
Monthly
Summary
United States of America

CHICAGO, ILLINOIS


Home > North America > United States > Illinois
Elevation: 674 feet     Latitude: 41 59N     Longitude: 087 54W

WEATHER
 
SELECT A DAY
Number of Records: 194,883;   Date Range: 7/8/95 - 7/29/14
 
SHARE

PRINT THIS DATA

[ ← Previous Day ]
WEATHER ALMANAC - APRIL 1, 2014
[ Next Day → ]
[ °C ]   °F
Weather ElementAverageHighLow
Temperature41 °F57 °F (1:52 am)33.1 °F (8:24 am)
Dewpoint25.5 °F42.1 °F (2:52 am)19.9 °F (8:24 am)
Humidity54.4 %62 % (2:52 am)44 % (4:52 pm)
Barometer29.88 in30.10 in (11:52 pm)29.67 in (1:52 am)
Wind Speed15.5 mph23 mph (10:52 am)
Wind Gust35.7 mph (12:52 pm)
Weather ElementAverage
Visibility10 mi
Wind DirectionWSW (250 °)

Weather ElementTotal
Precipitation---
Heating Degree Days20 (Base 65)
Averaged from 27 records on April 1, 2014
WEATHER CONDITIONS BREAKOUT
WIND DIRECTION BREAKOUT
WEATHER BY HOUR - APRIL 1, 2014
[ °C ]   °F
Local TimeTemperatureDewpointHumidityBarometerVisibilityWind DirectionWind SpeedGust SpeedPrecipitationEventsConditions
1:52 AM57.0 °F41.0 °F55 %29.67 in10.0 miSSW (200°)18.4 mphClear
2:52 AM55.0 °F42.1 °F62 %29.68 in10.0 miSSW (210°)12.7 mphPartly Cloudy
3:52 AM50.0 °F34.0 °F54 %29.70 in10.0 miWSW (250°)13.8 mph24.2 mphOvercast
4:52 AM43.0 °F28.9 °F58 %29.72 in10.0 miWSW (250°)10.4 mph27.6 mphClear
5:52 AM39.0 °F26.1 °F60 %29.75 in10.0 miWest (260°)13.8 mph25.3 mphMostly Cloudy
6:52 AM35.1 °F21.9 °F59 %29.77 in10.0 miWSW (250°)13.8 mph24.2 mphMostly Cloudy
7:52 AM34.0 °F21.9 °F61 %29.81 in10.0 miWSW (250°)16.1 mph26.5 mphOvercast
7:59 AM34.0 °F21.0 °F59 %29.80 in10.0 miWSW (240°)20.7 mph28.8 mphOvercast
8:24 AM33.1 °F19.9 °F59 %29.81 in10.0 miWSW (250°)18.4 mph25.3 mphOvercast
8:52 AM33.1 °F19.9 °F59 %29.83 in10.0 miWest (260°)18.4 mph29.9 mphOvercast
9:12 AM33.1 °F19.9 °F59 %29.82 in10.0 miWSW (240°)15.0 mph26.5 mphOvercast
9:52 AM34.0 °F19.9 °F56 %29.85 in10.0 miWSW (250°)13.8 mph24.2 mphOvercast
10:52 AM33.1 °F19.9 °F59 %29.87 in10.0 miWSW (240°)23.0 mph32.2 mphOvercast
11:52 AM34.0 °F19.9 °F56 %29.89 in10.0 miWSW (250°)20.7 mph29.9 mphOvercast
12:52 PM35.1 °F21.0 °F57 %29.91 in10.0 miWSW (250°)23.0 mph35.7 mphOvercast
1:17 PM37.0 °F21.0 °F52 %29.91 in10.0 miWSW (250°)20.7 mph32.2 mphOvercast
1:52 PM39.0 °F21.9 °F50 %29.92 in10.0 miWSW (250°)20.7 mph29.9 mphScattered Clouds
2:52 PM42.1 °F23.0 °F47 %29.93 in10.0 miWest (260°)20.7 mph32.2 mphPartly Cloudy
3:52 PM44.1 °F25.0 °F47 %29.93 in10.0 miWSW (250°)19.6 mph25.3 mphClear
4:52 PM46.0 °F25.0 °F44 %29.94 in10.0 miWest (260°)18.4 mph24.2 mphClear
5:52 PM46.9 °F26.1 °F44 %29.98 in10.0 miWest (270°)20.7 mph27.6 mphClear
6:52 PM46.0 °F27.0 °F47 %30.00 in10.0 miWest (260°)11.5 mphClear
7:52 PM46.0 °F28.0 °F50 %30.03 in10.0 miWest (280°)6.9 mphClear
8:52 PM45.0 °F28.0 °F52 %30.06 in10.0 miWSW (250°)6.9 mphClear
9:52 PM45.0 °F28.0 °F52 %30.08 in10.0 miSW (230°)5.8 mphClear
10:52 PM44.1 °F28.9 °F55 %30.09 in10.0 miWest (270°)8.1 mphOvercast
11:52 PM44.1 °F28.9 °F55 %30.10 in10.0 miWest (270°)5.8 mphOvercast
Hourly data recorded from KPWK, located miles away from Chicago, Illinois







STORIES FROM OUR PARTNERS